Vineland (AU8), Ontario

3:49 AM EDT on June 27, 2017 (GMT -0400)
Vineland (AU8)

Weather History for CXVN - September, 2012

Change the Weather History Date:

Tuesday, September 11, 2012

  Actual Average (CYSN) Record (CYSN)
Temperature  
Mean Temperature 63 °F -  
Max Temperature 76 °F 72 °F 87 °F (2013)
Min Temperature 50 °F 56 °F 46 °F (2006)
Degree Days  
Heating Degree Days 2    
Growing Degree Days 13 (Base 50)    
Moisture  
Dew Point 49 °F    
Average Humidity 63    
Maximum Humidity 81    
Minimum Humidity 36    
Precipitation  
Precipitation 0.01 in - - ()
Sea Level Pressure  
Sea Level Pressure 30.18 in    
Wind  
Wind Speed 5 mph ()    
Max Wind Speed 13 mph    
Max Gust Speed 20 mph    
Averages and records for this station are not official NWS values.
T = Trace of Precipitation, MM = Missing Value Source: Averaged Metar Reports

Daily Weather History Graph

Daily Weather History Graph

Search for Another Location

Airport or City:

Trip Planner

Search our weather history database for the weather conditions in past years. The results will help you decide how hot, cold, wet, or windy it might be!

Date:

Astronomy

Sep. 11, 2012 Rise Set
Actual Time 6:53 AM EDT 7:33 PM EDT
Civil Twilight 6:24 AM EDT 8:02 PM EDT
Nautical Twilight 5:50 AM EDT 8:36 PM EDT
Astronomical Twilight 5:15 AM EDT 9:11 PM EDT
Moon 2:02 AM EDT (9/11) 4:48 PM EDT (9/11)
Length of Visible Light 13h 38m
Length of Day
12h 40m
Waning Crescent, 21% of the Moon is Illuminated
Sep 11
Waning Crescent
Sep 15
New
Sep 22
First Quarter
Sep 29
Full
Oct 8
Last Quarter

Hourly Weather History & Observations

Time (EDT) Temp. Dew Point Humidity Pressure Visibility Wind Dir Wind Speed Gust Speed Precip Events Conditions
12:00 AM 54.9 °F 44.1 °F 67% 30.14 in - SSW 4.6 mph - N/A   Unknown
1:00 AM 52.9 °F 45.1 °F 75% 30.14 in - SSW 3.5 mph - N/A   Unknown
2:00 AM 53 °F 45 °F 65% 30.15 in - SSW 4.6 mph - -  
2:00 AM 53.4 °F 44.8 °F 73% 30.15 in - SSW 4.6 mph - N/A   Unknown
3:00 AM 51.6 °F 45.7 °F 80% 30.16 in - SSW 4.6 mph - N/A   Unknown
4:00 AM 51.6 °F 45.5 °F 80% 30.16 in - SSW 5.8 mph - N/A   Unknown
5:00 AM 51.8 °F 45.5 °F 79% 30.17 in - SW 4.6 mph - N/A   Unknown
6:00 AM 52.5 °F 45.7 °F 78% 30.18 in - SW 3.5 mph - N/A   Unknown
7:00 AM 51.8 °F 46.2 °F 81% 30.21 in - SSW 4.6 mph - N/A   Unknown
8:00 AM 55 °F 47 °F 66% 30.22 in - SSW 3.5 mph - -  
8:00 AM 54.9 °F 46.9 °F 75% 30.22 in - SSW 3.5 mph - N/A   Unknown
9:00 AM 59.0 °F 48.6 °F 68% 30.22 in - WSW 1.2 mph - N/A   Unknown
10:00 AM 63.1 °F 50.0 °F 62% 30.22 in - SSW 2.3 mph - N/A   Unknown
11:00 AM 71.4 °F 52.9 °F 52% 30.21 in - WSW 8.1 mph - 0.01 in   Unknown
12:00 PM 73.2 °F 53.2 °F 49% 30.20 in - WSW 10.4 mph 17.3 mph N/A   Unknown
1:00 PM 73.9 °F 54.7 °F 51% 30.19 in - WSW 10.4 mph - N/A   Unknown
2:00 PM 75 °F 53 °F 36% 30.19 in - SSW 11.5 mph - -  
2:00 PM 75.4 °F 53.1 °F 46% 30.19 in - SSW 11.5 mph 17.3 mph N/A   Unknown
3:00 PM 75.6 °F 53.1 °F 45% 30.18 in - SW 11.5 mph 19.6 mph N/A   Unknown
5:00 PM 73.2 °F 49.5 °F 43% 30.17 in - SW 12.7 mph - N/A   Unknown
6:00 PM 72.5 °F 52.3 °F 49% 30.17 in - SW 10.4 mph - N/A   Unknown
7:00 PM 70.2 °F 50.5 °F 50% 30.16 in - SW 6.9 mph - N/A   Unknown
8:00 PM 65 °F 51 °F 52% 30.17 in - SSW 4.6 mph - -  
8:00 PM 65.3 °F 51.4 °F 61% 30.17 in - SSW 4.6 mph - N/A   Unknown
9:00 PM 63.1 °F 52.5 °F 68% 30.18 in - SSW 4.6 mph - N/A   Unknown
10:00 PM 61.9 °F 53.1 °F 73% 30.17 in - SSW 4.6 mph - N/A   Unknown
11:00 PM 62.4 °F 53.4 °F 72% 30.17 in - SSW 5.8 mph - N/A   Unknown